Year,Month,Day,Hour,Minute,Value (Times are PST for temperature in C)
2006,09,02,00,00,15.30
2006,09,02,00,01,15.30
2006,09,02,00,02,15.30
2006,09,02,00,03,15.30
2006,09,02,00,04,15.30
2006,09,02,00,05,15.30
2006,09,02,00,06,15.20
2006,09,02,00,07,15.20
2006,09,02,00,08,15.20
2006,09,02,00,09,15.10
2006,09,02,00,10,15.10
2006,09,02,00,11,15.00
2006,09,02,00,12,14.90
2006,09,02,00,13,14.90
2006,09,02,00,14,14.80
2006,09,02,00,15,14.80
2006,09,02,00,16,14.70
2006,09,02,00,17,14.70
2006,09,02,00,18,14.60
2006,09,02,00,19,14.50
2006,09,02,00,20,14.50
2006,09,02,00,21,14.40
2006,09,02,00,22,14.30
2006,09,02,00,23,14.20
2006,09,02,00,24,14.20
2006,09,02,00,25,14.20
2006,09,02,00,26,14.20
2006,09,02,00,27,14.10
2006,09,02,00,28,14.10
2006,09,02,00,29,14.00
2006,09,02,00,30,14.00
2006,09,02,00,31,14.00
2006,09,02,00,32,14.00
2006,09,02,00,33,14.00
2006,09,02,00,34,13.90
2006,09,02,00,35,13.90
2006,09,02,00,36,13.90
2006,09,02,00,37,13.90
2006,09,02,00,38,13.90
2006,09,02,00,39,13.90
2006,09,02,00,40,13.90
2006,09,02,00,41,13.90
2006,09,02,00,42,13.90
2006,09,02,00,43,13.90
2006,09,02,00,44,13.90
2006,09,02,00,45,13.90
2006,09,02,00,46,13.90
2006,09,02,00,47,13.90
2006,09,02,00,48,13.90
2006,09,02,00,49,13.90
2006,09,02,00,50,13.90
2006,09,02,00,51,13.90
2006,09,02,00,52,13.90
2006,09,02,00,53,13.90
2006,09,02,00,54,13.90
2006,09,02,00,55,13.90
2006,09,02,00,56,13.90
2006,09,02,00,57,13.90
2006,09,02,00,58,13.90
2006,09,02,00,59,13.90
2006,09,02,01,00,13.90
2006,09,02,01,01,13.80
2006,09,02,01,02,13.70
2006,09,02,01,03,13.70
2006,09,02,01,04,13.60
2006,09,02,01,05,13.60
2006,09,02,01,06,13.50
2006,09,02,01,07,13.50
2006,09,02,01,08,13.50
2006,09,02,01,09,13.40
2006,09,02,01,10,13.40
2006,09,02,01,11,13.40
2006,09,02,01,12,13.40
2006,09,02,01,13,13.50
2006,09,02,01,14,13.50
2006,09,02,01,15,13.50
2006,09,02,01,16,13.60
2006,09,02,01,17,13.60
2006,09,02,01,18,13.70
2006,09,02,01,19,13.70
2006,09,02,01,20,13.70
2006,09,02,01,21,13.80
2006,09,02,01,22,13.80
2006,09,02,01,23,13.90
2006,09,02,01,24,13.90
2006,09,02,01,25,13.90
2006,09,02,01,26,13.90
2006,09,02,01,27,13.90
2006,09,02,01,28,13.90
2006,09,02,01,29,13.90
2006,09,02,01,30,14.00
2006,09,02,01,31,14.00
2006,09,02,01,32,14.00
2006,09,02,01,33,14.00
2006,09,02,01,34,14.10
2006,09,02,01,35,14.10
2006,09,02,01,36,14.10
2006,09,02,01,37,14.00
2006,09,02,01,38,14.00
2006,09,02,01,39,14.00
2006,09,02,01,40,14.00
2006,09,02,01,41,13.90
2006,09,02,01,42,13.90
2006,09,02,01,43,13.80
2006,09,02,01,44,13.80
2006,09,02,01,45,13.80
2006,09,02,01,46,13.70
2006,09,02,01,47,13.70
2006,09,02,01,48,13.70
2006,09,02,01,49,13.70
2006,09,02,01,50,13.60
2006,09,02,01,51,13.60
2006,09,02,01,52,13.50
2006,09,02,01,53,13.50
2006,09,02,01,54,13.40
2006,09,02,01,55,13.30
2006,09,02,01,56,13.30
2006,09,02,01,57,13.20
2006,09,02,01,58,13.10
2006,09,02,01,59,13.10
2006,09,02,02,00,13.00
2006,09,02,02,01,12.90
2006,09,02,02,02,12.80
2006,09,02,02,03,12.80
2006,09,02,02,04,12.80
2006,09,02,02,05,12.80
2006,09,02,02,06,12.80
2006,09,02,02,07,12.80
2006,09,02,02,08,12.80
2006,09,02,02,09,12.80
2006,09,02,02,10,12.80
2006,09,02,02,11,12.90
2006,09,02,02,12,13.00
2006,09,02,02,13,13.00
2006,09,02,02,14,13.10
2006,09,02,02,15,13.20
2006,09,02,02,16,13.20
2006,09,02,02,17,13.30
2006,09,02,02,18,13.30
2006,09,02,02,19,13.30
2006,09,02,02,20,13.30
2006,09,02,02,21,13.40
2006,09,02,02,22,13.40
2006,09,02,02,23,13.40
2006,09,02,02,24,13.40
2006,09,02,02,25,13.40
2006,09,02,02,26,13.40
2006,09,02,02,27,13.40
2006,09,02,02,28,13.40
2006,09,02,02,29,13.40
2006,09,02,02,30,13.30
2006,09,02,02,31,13.30
2006,09,02,02,32,13.30
2006,09,02,02,33,13.30
2006,09,02,02,34,13.30
2006,09,02,02,35,13.20
2006,09,02,02,36,13.20
2006,09,02,02,37,13.20
2006,09,02,02,38,13.20
2006,09,02,02,39,13.20
2006,09,02,02,40,13.30
2006,09,02,02,41,13.30
2006,09,02,02,42,13.20
2006,09,02,02,43,13.20
2006,09,02,02,44,13.20
2006,09,02,02,45,13.10
2006,09,02,02,46,13.10
2006,09,02,02,47,13.00
2006,09,02,02,48,13.00
2006,09,02,02,49,12.90
2006,09,02,02,50,12.90
2006,09,02,02,51,12.80
2006,09,02,02,52,12.80
2006,09,02,02,53,12.80
2006,09,02,02,54,12.70
2006,09,02,02,55,12.70
2006,09,02,02,56,12.70
2006,09,02,02,57,12.60
2006,09,02,02,58,12.60
2006,09,02,02,59,12.60
2006,09,02,03,00,12.60
2006,09,02,03,01,12.60
2006,09,02,03,02,12.50
2006,09,02,03,03,12.50
2006,09,02,03,04,12.50
2006,09,02,03,05,12.50
2006,09,02,03,06,12.50
2006,09,02,03,07,12.50
2006,09,02,03,08,12.50
2006,09,02,03,09,12.50
2006,09,02,03,10,12.50
2006,09,02,03,11,12.50
2006,09,02,03,12,12.50
2006,09,02,03,13,12.60
2006,09,02,03,14,12.60
2006,09,02,03,15,12.60
2006,09,02,03,16,12.70
2006,09,02,03,17,12.70
2006,09,02,03,18,12.80
2006,09,02,03,19,12.80
2006,09,02,03,20,12.90
2006,09,02,03,21,13.00
2006,09,02,03,22,13.00
2006,09,02,03,23,13.10
2006,09,02,03,24,13.10
2006,09,02,03,25,13.10
2006,09,02,03,26,13.10
2006,09,02,03,27,13.10
2006,09,02,03,28,13.10
2006,09,02,03,29,13.10
2006,09,02,03,30,13.10
2006,09,02,03,31,13.00
2006,09,02,03,32,13.00
2006,09,02,03,33,13.00
2006,09,02,03,34,13.00
2006,09,02,03,35,12.90
2006,09,02,03,36,12.90
2006,09,02,03,37,12.90
2006,09,02,03,38,12.90
2006,09,02,03,39,12.80
2006,09,02,03,40,12.80
2006,09,02,03,41,12.80
2006,09,02,03,42,12.80
2006,09,02,03,43,12.70
2006,09,02,03,44,12.70
2006,09,02,03,45,12.60
2006,09,02,03,46,12.60
2006,09,02,03,47,12.50
2006,09,02,03,48,12.50
2006,09,02,03,49,12.50
2006,09,02,03,50,12.50
2006,09,02,03,51,12.50
2006,09,02,03,52,12.50
2006,09,02,03,53,12.50
2006,09,02,03,54,12.50
2006,09,02,03,55,12.50
2006,09,02,03,56,12.50
2006,09,02,03,57,12.40
2006,09,02,03,58,12.40
2006,09,02,03,59,12.40
2006,09,02,04,00,12.30
2006,09,02,04,01,12.30
2006,09,02,04,02,12.30
2006,09,02,04,03,12.30
2006,09,02,04,04,12.20
2006,09,02,04,05,12.20
2006,09,02,04,06,12.10
2006,09,02,04,07,12.10
2006,09,02,04,08,12.00
2006,09,02,04,09,12.00
2006,09,02,04,10,12.00
2006,09,02,04,11,11.90
2006,09,02,04,12,11.80
2006,09,02,04,13,11.80
2006,09,02,04,14,11.80
2006,09,02,04,15,11.80
2006,09,02,04,16,11.80
2006,09,02,04,17,11.80
2006,09,02,04,18,11.90
2006,09,02,04,19,11.90
2006,09,02,04,20,12.00
2006,09,02,04,21,12.00
2006,09,02,04,22,12.00
2006,09,02,04,23,12.00
2006,09,02,04,24,12.00
2006,09,02,04,25,12.00
2006,09,02,04,26,12.00
2006,09,02,04,27,12.00
2006,09,02,04,28,12.00
2006,09,02,04,29,12.10
2006,09,02,04,30,12.10
2006,09,02,04,31,12.10
2006,09,02,04,32,12.00
2006,09,02,04,33,12.00
2006,09,02,04,34,12.00
2006,09,02,04,35,12.00
2006,09,02,04,36,12.00
2006,09,02,04,37,12.00
2006,09,02,04,38,12.00
2006,09,02,04,39,12.00
2006,09,02,04,40,12.00
2006,09,02,04,41,12.00
2006,09,02,04,42,11.90
2006,09,02,04,43,11.90
2006,09,02,04,44,11.90
2006,09,02,04,45,11.90
2006,09,02,04,46,11.90
2006,09,02,04,47,11.90
2006,09,02,04,48,11.80
2006,09,02,04,49,11.80
2006,09,02,04,50,11.80
2006,09,02,04,51,11.80
2006,09,02,04,52,11.80
2006,09,02,04,53,11.80
2006,09,02,04,54,11.80
2006,09,02,04,55,11.80
2006,09,02,04,56,11.80
2006,09,02,04,57,11.80
2006,09,02,04,58,11.80
2006,09,02,04,59,11.80
2006,09,02,05,00,11.70
2006,09,02,05,01,11.70
2006,09,02,05,02,11.70
2006,09,02,05,03,11.70
2006,09,02,05,04,11.60
2006,09,02,05,05,11.60
2006,09,02,05,06,11.60
2006,09,02,05,07,11.60
2006,09,02,05,08,11.60
2006,09,02,05,09,11.60
2006,09,02,05,10,11.60
2006,09,02,05,11,11.60
2006,09,02,05,12,11.50
2006,09,02,05,13,11.40
2006,09,02,05,14,11.40
2006,09,02,05,15,11.40
2006,09,02,05,16,11.40
2006,09,02,05,17,11.40
2006,09,02,05,18,11.40
2006,09,02,05,19,11.30
2006,09,02,05,20,11.30
2006,09,02,05,21,11.30
2006,09,02,05,22,11.30
2006,09,02,05,23,11.30
2006,09,02,05,24,11.20
2006,09,02,05,25,11.20
2006,09,02,05,26,11.20
2006,09,02,05,27,11.30
2006,09,02,05,28,11.50
2006,09,02,05,29,11.70
2006,09,02,05,30,11.90
2006,09,02,05,31,12.30
2006,09,02,05,32,12.50
2006,09,02,05,33,12.70
2006,09,02,05,34,13.00
2006,09,02,05,35,13.10
2006,09,02,05,36,13.20
2006,09,02,05,37,13.30
2006,09,02,05,38,13.30
2006,09,02,05,39,13.30
2006,09,02,05,40,13.10
2006,09,02,05,41,13.00
2006,09,02,05,42,12.90
2006,09,02,05,43,12.80
2006,09,02,05,44,12.70
2006,09,02,05,45,12.70
2006,09,02,05,46,12.60
2006,09,02,05,47,12.50
2006,09,02,05,48,12.50
2006,09,02,05,49,12.40
2006,09,02,05,50,12.30
2006,09,02,05,51,12.30
2006,09,02,05,52,12.20
2006,09,02,05,53,12.20
2006,09,02,05,54,12.10
2006,09,02,05,55,12.10
2006,09,02,05,56,12.00
2006,09,02,05,57,12.00
2006,09,02,05,58,12.00
2006,09,02,05,59,11.90
2006,09,02,06,00,11.90
2006,09,02,06,01,11.90
2006,09,02,06,02,11.90
2006,09,02,06,03,11.90
2006,09,02,06,04,11.90
2006,09,02,06,05,11.90
2006,09,02,06,06,11.90
2006,09,02,06,07,11.80
2006,09,02,06,08,11.80
2006,09,02,06,09,11.80
2006,09,02,06,10,11.80
2006,09,02,06,11,11.80
2006,09,02,06,12,11.90
2006,09,02,06,13,12.10
2006,09,02,06,14,12.40
2006,09,02,06,15,12.70
2006,09,02,06,16,13.10
2006,09,02,06,17,13.30
2006,09,02,06,18,13.30
2006,09,02,06,19,13.90
2006,09,02,06,20,14.10
2006,09,02,06,21,14.30
2006,09,02,06,22,14.40
2006,09,02,06,23,14.50
2006,09,02,06,24,14.60
2006,09,02,06,25,14.70
2006,09,02,06,26,14.70
2006,09,02,06,27,14.80
2006,09,02,06,28,14.90
2006,09,02,06,29,14.90
2006,09,02,06,30,15.00
2006,09,02,06,31,15.10
2006,09,02,06,32,15.10
2006,09,02,06,33,15.20
2006,09,02,06,34,15.20
2006,09,02,06,35,15.30
2006,09,02,06,36,15.30
2006,09,02,06,37,15.30
2006,09,02,06,38,15.40
2006,09,02,06,39,15.40
2006,09,02,06,40,15.30
2006,09,02,06,41,15.30
2006,09,02,06,42,15.30
2006,09,02,06,43,15.30
2006,09,02,06,44,15.30
2006,09,02,06,45,15.30
2006,09,02,06,46,15.30
2006,09,02,06,47,15.30
2006,09,02,06,48,15.30
2006,09,02,06,49,15.30
2006,09,02,06,50,15.40
2006,09,02,06,51,15.50
2006,09,02,06,52,15.60
2006,09,02,06,53,15.60
2006,09,02,06,54,15.60
2006,09,02,06,55,15.70
2006,09,02,06,56,15.80
2006,09,02,06,57,15.80
2006,09,02,06,58,15.80
2006,09,02,06,59,15.80
2006,09,02,07,00,15.90
2006,09,02,07,01,16.10
2006,09,02,07,02,16.10
2006,09,02,07,03,16.10
2006,09,02,07,04,16.20
2006,09,02,07,05,16.20
2006,09,02,07,06,16.20
2006,09,02,07,07,16.30
2006,09,02,07,08,16.30
2006,09,02,07,09,16.40
2006,09,02,07,10,16.50
2006,09,02,07,11,16.60
2006,09,02,07,12,16.70
2006,09,02,07,13,16.70
2006,09,02,07,14,16.70
2006,09,02,07,15,16.80
2006,09,02,07,16,16.80
2006,09,02,07,17,16.90
2006,09,02,07,18,17.00
2006,09,02,07,19,17.00
2006,09,02,07,20,17.10
2006,09,02,07,21,17.10
2006,09,02,07,22,17.10
2006,09,02,07,23,17.10
2006,09,02,07,24,17.20
2006,09,02,07,25,17.20
2006,09,02,07,26,17.20
2006,09,02,07,27,17.20
2006,09,02,07,28,17.20
2006,09,02,07,29,17.20
2006,09,02,07,30,17.30
2006,09,02,07,31,17.30
2006,09,02,07,32,17.30
2006,09,02,07,33,17.40
2006,09,02,07,34,17.40
2006,09,02,07,35,17.50
2006,09,02,07,36,17.50
2006,09,02,07,37,17.50
2006,09,02,07,38,17.50
2006,09,02,07,39,17.60
2006,09,02,07,40,17.70
2006,09,02,07,41,17.70
2006,09,02,07,42,17.70
2006,09,02,07,43,17.70
2006,09,02,07,44,17.80
2006,09,02,07,45,17.80
2006,09,02,07,46,17.80
2006,09,02,07,47,17.80
2006,09,02,07,48,17.90
2006,09,02,07,49,17.90
2006,09,02,07,50,17.90
2006,09,02,07,51,18.00
2006,09,02,07,52,18.10
2006,09,02,07,53,18.10
2006,09,02,07,54,18.20
2006,09,02,07,55,18.20
2006,09,02,07,56,18.20
2006,09,02,07,57,18.30
2006,09,02,07,58,18.30
2006,09,02,07,59,18.40
2006,09,02,08,00,18.50
2006,09,02,08,01,18.50
2006,09,02,08,02,18.50
2006,09,02,08,03,18.60
2006,09,02,08,04,18.60
2006,09,02,08,05,18.70
2006,09,02,08,06,18.70
2006,09,02,08,07,18.70
2006,09,02,08,08,18.80
2006,09,02,08,09,18.90
2006,09,02,08,10,18.90
2006,09,02,08,11,19.00
2006,09,02,08,12,19.10
2006,09,02,08,13,19.10
2006,09,02,08,14,19.10
2006,09,02,08,15,19.10
2006,09,02,08,16,19.20
2006,09,02,08,17,19.20
2006,09,02,08,18,19.30
2006,09,02,08,19,19.30
2006,09,02,08,20,19.30
2006,09,02,08,21,19.40
2006,09,02,08,22,19.40
2006,09,02,08,23,19.50
2006,09,02,08,24,19.60
2006,09,02,08,25,19.60
2006,09,02,08,26,19.70
2006,09,02,08,27,19.80
2006,09,02,08,28,19.80
2006,09,02,08,29,19.90
2006,09,02,08,30,19.90
2006,09,02,08,31,20.10
2006,09,02,08,32,20.10
2006,09,02,08,33,20.20
2006,09,02,08,34,20.20
2006,09,02,08,35,20.20
2006,09,02,08,36,20.20
2006,09,02,08,37,20.20
2006,09,02,08,38,20.30
2006,09,02,08,39,20.40
2006,09,02,08,40,20.40
2006,09,02,08,41,20.50
2006,09,02,08,42,20.50
2006,09,02,08,43,20.60
2006,09,02,08,44,20.60
2006,09,02,08,45,20.70
2006,09,02,08,46,20.70
2006,09,02,08,47,20.80
2006,09,02,08,48,20.80
2006,09,02,08,49,20.80
2006,09,02,08,50,20.80
2006,09,02,08,51,20.90
2006,09,02,08,52,20.90
2006,09,02,08,53,21.00
2006,09,02,08,54,21.00
2006,09,02,08,55,21.10
2006,09,02,08,56,21.10
2006,09,02,08,57,21.20
2006,09,02,08,58,21.20
2006,09,02,08,59,21.20
2006,09,02,09,00,21.30
2006,09,02,09,01,21.30
2006,09,02,09,02,21.30
2006,09,02,09,03,21.30
2006,09,02,09,04,21.40
2006,09,02,09,05,21.40
2006,09,02,09,06,21.40
2006,09,02,09,07,21.50
2006,09,02,09,08,21.60
2006,09,02,09,09,21.60
2006,09,02,09,10,21.60
2006,09,02,09,11,21.60
2006,09,02,09,12,21.60
2006,09,02,09,13,21.60
2006,09,02,09,14,21.60
2006,09,02,09,15,21.60
2006,09,02,09,16,21.60
2006,09,02,09,17,21.70
2006,09,02,09,18,21.70
2006,09,02,09,19,21.70
2006,09,02,09,20,21.80
2006,09,02,09,21,21.80
2006,09,02,09,22,21.80
2006,09,02,09,23,21.80
2006,09,02,09,24,21.80
2006,09,02,09,25,21.90
2006,09,02,09,26,21.90
2006,09,02,09,27,21.90
2006,09,02,09,28,21.90
2006,09,02,09,29,21.90
2006,09,02,09,30,22.00
2006,09,02,09,31,22.00
2006,09,02,09,32,22.10
2006,09,02,09,33,22.10
2006,09,02,09,34,22.00
2006,09,02,09,35,22.00
2006,09,02,09,36,22.00
2006,09,02,09,37,22.00
2006,09,02,09,38,22.10
2006,09,02,09,39,22.20
2006,09,02,09,40,22.20
2006,09,02,09,41,22.20
2006,09,02,09,42,22.20
2006,09,02,09,43,22.20
2006,09,02,09,44,22.20
2006,09,02,09,45,22.20
2006,09,02,09,46,22.20
2006,09,02,09,47,22.10
2006,09,02,09,48,22.20
2006,09,02,09,49,22.20
2006,09,02,09,50,22.20
2006,09,02,09,51,22.20
2006,09,02,09,52,22.30
2006,09,02,09,53,22.30
2006,09,02,09,54,22.30
2006,09,02,09,55,22.40
2006,09,02,09,56,22.40
2006,09,02,09,57,22.40
2006,09,02,09,58,22.40
2006,09,02,09,59,22.40
2006,09,02,10,00,22.40
2006,09,02,10,01,22.50
2006,09,02,10,02,22.50
2006,09,02,10,03,22.50
2006,09,02,10,04,22.60
2006,09,02,10,05,22.60
2006,09,02,10,06,22.60
2006,09,02,10,07,22.70
2006,09,02,10,08,22.70
2006,09,02,10,09,22.80
2006,09,02,10,10,22.90
2006,09,02,10,11,22.90
2006,09,02,10,12,22.90
2006,09,02,10,13,22.90
2006,09,02,10,14,22.90
2006,09,02,10,15,22.90
2006,09,02,10,16,22.90
2006,09,02,10,17,22.90
2006,09,02,10,18,22.80
2006,09,02,10,19,22.80
2006,09,02,10,20,22.90
2006,09,02,10,21,22.90
2006,09,02,10,22,22.90
2006,09,02,10,23,22.90
2006,09,02,10,24,22.90
2006,09,02,10,25,23.00
2006,09,02,10,26,23.10
2006,09,02,10,27,23.10
2006,09,02,10,28,23.20
2006,09,02,10,29,23.20
2006,09,02,10,30,23.30
2006,09,02,10,31,23.30
2006,09,02,10,32,23.30
2006,09,02,10,33,23.30
2006,09,02,10,34,23.30
2006,09,02,10,35,23.30
2006,09,02,10,36,23.40
2006,09,02,10,37,23.40
2006,09,02,10,38,23.40
2006,09,02,10,39,23.40
2006,09,02,10,40,23.40
2006,09,02,10,41,23.40
2006,09,02,10,42,23.40
2006,09,02,10,43,23.40
2006,09,02,10,44,23.40
2006,09,02,10,45,23.30
2006,09,02,10,46,23.30
2006,09,02,10,47,23.30
2006,09,02,10,48,23.40
2006,09,02,10,49,23.40
2006,09,02,10,50,23.50
2006,09,02,10,51,23.60
2006,09,02,10,52,23.60
2006,09,02,10,53,23.60
2006,09,02,10,54,23.60
2006,09,02,10,55,23.70
2006,09,02,10,56,23.70
2006,09,02,10,57,23.70
2006,09,02,10,58,23.60
2006,09,02,10,59,23.60
2006,09,02,11,00,23.70
2006,09,02,11,01,23.80
2006,09,02,11,02,23.90
2006,09,02,11,03,24.00
2006,09,02,11,04,24.10
2006,09,02,11,05,24.10
2006,09,02,11,06,24.10
2006,09,02,11,07,24.20
2006,09,02,11,08,24.20
2006,09,02,11,09,24.20
2006,09,02,11,10,24.30
2006,09,02,11,11,24.20
2006,09,02,11,12,24.20
2006,09,02,11,13,24.20
2006,09,02,11,14,24.20
2006,09,02,11,15,24.20
2006,09,02,11,16,24.20
2006,09,02,11,17,24.30
2006,09,02,11,18,24.30
2006,09,02,11,19,24.30
2006,09,02,11,20,24.30
2006,09,02,11,21,24.40
2006,09,02,11,22,24.40
2006,09,02,11,23,24.40
2006,09,02,11,24,24.40
2006,09,02,11,25,24.40
2006,09,02,11,26,24.30
2006,09,02,11,27,24.30
2006,09,02,11,28,24.20
2006,09,02,11,29,24.20
2006,09,02,11,30,24.30
2006,09,02,11,31,24.30
2006,09,02,11,32,24.30
2006,09,02,11,33,24.30
2006,09,02,11,34,24.40
2006,09,02,11,35,24.50
2006,09,02,11,36,24.60
2006,09,02,11,37,24.60
2006,09,02,11,38,24.60
2006,09,02,11,39,24.60
2006,09,02,11,40,24.60
2006,09,02,11,41,24.60
2006,09,02,11,42,24.50
2006,09,02,11,43,24.50
2006,09,02,11,44,24.50
2006,09,02,11,45,24.50
2006,09,02,11,46,24.40
2006,09,02,11,47,24.40
2006,09,02,11,48,24.40
2006,09,02,11,49,24.40
2006,09,02,11,50,24.40
2006,09,02,11,51,24.30
2006,09,02,11,52,24.20
2006,09,02,11,53,24.30
2006,09,02,11,54,24.30
2006,09,02,11,55,24.30
2006,09,02,11,56,24.40
2006,09,02,11,57,24.30
2006,09,02,11,58,24.30
2006,09,02,11,59,24.30
2006,09,02,12,00,24.30
2006,09,02,12,01,24.40
2006,09,02,12,02,24.40
2006,09,02,12,03,24.40
2006,09,02,12,04,24.40
2006,09,02,12,05,24.50
2006,09,02,12,06,24.50
2006,09,02,12,07,24.60
2006,09,02,12,08,24.70
2006,09,02,12,09,24.70
2006,09,02,12,10,24.70
2006,09,02,12,11,24.70
2006,09,02,12,12,24.80
2006,09,02,12,13,24.80
2006,09,02,12,14,24.80
2006,09,02,12,15,24.70
2006,09,02,12,16,24.70
2006,09,02,12,17,24.70
2006,09,02,12,18,24.80
2006,09,02,12,19,24.80
2006,09,02,12,20,24.90
2006,09,02,12,21,25.00
2006,09,02,12,22,25.10
2006,09,02,12,23,25.20
2006,09,02,12,24,25.20
2006,09,02,12,25,25.20
2006,09,02,12,26,25.20
2006,09,02,12,27,25.30
2006,09,02,12,28,25.30
2006,09,02,12,29,25.30
2006,09,02,12,30,25.30
2006,09,02,12,31,25.30
2006,09,02,12,32,25.40
2006,09,02,12,33,25.40
2006,09,02,12,34,25.40
2006,09,02,12,35,25.40
2006,09,02,12,36,25.40
2006,09,02,12,37,25.30
2006,09,02,12,38,25.20
2006,09,02,12,39,25.30
2006,09,02,12,40,25.30
2006,09,02,12,41,25.30
2006,09,02,12,42,25.30
2006,09,02,12,43,25.20
2006,09,02,12,44,25.10
2006,09,02,12,45,25.10
2006,09,02,12,46,25.10
2006,09,02,12,47,25.10
2006,09,02,12,48,25.00
2006,09,02,12,49,25.00
2006,09,02,12,50,25.10
2006,09,02,12,51,25.10
2006,09,02,12,52,25.10
2006,09,02,12,53,25.10
2006,09,02,12,54,25.10
2006,09,02,12,55,25.20
2006,09,02,12,56,25.20
2006,09,02,12,57,25.20
2006,09,02,12,58,25.20
2006,09,02,12,59,25.20
2006,09,02,13,00,25.20
2006,09,02,13,01,25.10
2006,09,02,13,02,25.10
2006,09,02,13,03,25.20
2006,09,02,13,04,25.20
2006,09,02,13,05,25.20
2006,09,02,13,06,25.50
2006,09,02,13,07,25.60
2006,09,02,13,08,25.60
2006,09,02,13,09,25.60
2006,09,02,13,10,25.60
2006,09,02,13,11,25.60
2006,09,02,13,12,25.60
2006,09,02,13,13,25.50
2006,09,02,13,14,25.50
2006,09,02,13,15,25.50
2006,09,02,13,16,25.60
2006,09,02,13,17,25.60
2006,09,02,13,18,25.70
2006,09,02,13,19,25.70
2006,09,02,13,20,25.70
2006,09,02,13,21,25.80
2006,09,02,13,22,25.90
2006,09,02,13,23,25.90
2006,09,02,13,24,26.00
2006,09,02,13,25,26.20
2006,09,02,13,26,26.20
2006,09,02,13,27,26.10
2006,09,02,13,28,26.10
2006,09,02,13,29,26.10
2006,09,02,13,30,26.10
2006,09,02,13,31,26.10
2006,09,02,13,32,26.20
2006,09,02,13,33,26.30
2006,09,02,13,34,26.30
2006,09,02,13,35,26.20
2006,09,02,13,36,26.10
2006,09,02,13,37,26.10
2006,09,02,13,38,26.10
2006,09,02,13,39,26.20
2006,09,02,13,40,26.20
2006,09,02,13,41,26.20
2006,09,02,13,42,26.20
2006,09,02,13,43,26.30
2006,09,02,13,44,26.20
2006,09,02,13,45,26.30
2006,09,02,13,46,26.30
2006,09,02,13,47,26.40
2006,09,02,13,48,26.40
2006,09,02,13,49,26.40
2006,09,02,13,50,26.30
2006,09,02,13,51,26.30
2006,09,02,13,52,26.40
2006,09,02,13,53,26.60
2006,09,02,13,54,26.60
2006,09,02,13,55,26.60
2006,09,02,13,56,26.60
2006,09,02,13,57,26.70
2006,09,02,13,58,26.70
2006,09,02,13,59,26.70
2006,09,02,14,00,26.70
2006,09,02,14,01,26.70
2006,09,02,14,02,26.80
2006,09,02,14,03,26.80
2006,09,02,14,04,26.80
2006,09,02,14,05,26.80
2006,09,02,14,06,26.80
2006,09,02,14,07,26.80
2006,09,02,14,08,26.70
2006,09,02,14,09,26.70
2006,09,02,14,10,26.70
2006,09,02,14,11,26.70
2006,09,02,14,12,26.60
2006,09,02,14,13,26.60
2006,09,02,14,14,26.70
2006,09,02,14,15,26.70
2006,09,02,14,16,26.70
2006,09,02,14,17,26.60
2006,09,02,14,18,26.70
2006,09,02,14,19,26.80
2006,09,02,14,20,27.00
2006,09,02,14,21,27.10
2006,09,02,14,22,27.20
2006,09,02,14,23,27.30
2006,09,02,14,24,27.30
2006,09,02,14,25,27.30
2006,09,02,14,26,27.30
2006,09,02,14,27,27.30
2006,09,02,14,28,27.30
2006,09,02,14,29,27.30
2006,09,02,14,30,27.40
2006,09,02,14,31,27.40
2006,09,02,14,32,27.40
2006,09,02,14,33,27.40
2006,09,02,14,34,27.40
2006,09,02,14,35,27.30
2006,09,02,14,36,27.30
2006,09,02,14,37,27.30
2006,09,02,14,38,27.40
2006,09,02,14,39,27.40
2006,09,02,14,40,27.30
2006,09,02,14,41,27.30
2006,09,02,14,42,27.30
2006,09,02,14,43,27.40
2006,09,02,14,44,27.40
2006,09,02,14,45,27.50
2006,09,02,14,46,27.60
2006,09,02,14,47,27.60
2006,09,02,14,48,27.70
2006,09,02,14,49,27.80
2006,09,02,14,50,27.90
2006,09,02,14,51,27.90
2006,09,02,14,52,28.00
2006,09,02,14,53,28.10
2006,09,02,14,54,28.10
2006,09,02,14,55,28.10
2006,09,02,14,56,28.10
2006,09,02,14,57,28.10
2006,09,02,14,58,28.00
2006,09,02,14,59,28.10
2006,09,02,15,00,28.10
2006,09,02,15,01,28.10
2006,09,02,15,02,28.10
2006,09,02,15,03,28.10
2006,09,02,15,04,28.10
2006,09,02,15,05,28.10
2006,09,02,15,06,28.10
2006,09,02,15,07,28.10
2006,09,02,15,08,28.10
2006,09,02,15,09,28.20
2006,09,02,15,10,28.20
2006,09,02,15,11,28.20
2006,09,02,15,12,28.20
2006,09,02,15,13,28.10
2006,09,02,15,14,28.20
2006,09,02,15,15,28.20
2006,09,02,15,16,28.30
2006,09,02,15,17,28.30
2006,09,02,15,18,28.30
2006,09,02,15,19,28.30
2006,09,02,15,20,28.20
2006,09,02,15,21,28.30
2006,09,02,15,22,28.40
2006,09,02,15,23,28.50
2006,09,02,15,24,28.60
2006,09,02,15,25,28.60
2006,09,02,15,26,28.60
2006,09,02,15,27,28.60
2006,09,02,15,28,28.60
2006,09,02,15,29,28.60
2006,09,02,15,30,28.60
2006,09,02,15,31,28.60
2006,09,02,15,32,28.60
2006,09,02,15,33,28.50
2006,09,02,15,34,28.40
2006,09,02,15,35,28.40
2006,09,02,15,36,28.40
2006,09,02,15,37,28.50
2006,09,02,15,38,28.60
2006,09,02,15,39,28.60
2006,09,02,15,40,28.70
2006,09,02,15,41,28.70
2006,09,02,15,42,28.80
2006,09,02,15,43,28.80
2006,09,02,15,44,28.80
2006,09,02,15,45,28.80
2006,09,02,15,46,28.80
2006,09,02,15,47,28.80
2006,09,02,15,48,28.80
2006,09,02,15,49,28.80
2006,09,02,15,50,28.90
2006,09,02,15,51,28.90
2006,09,02,15,52,28.90
2006,09,02,15,53,28.90
2006,09,02,15,54,28.90
2006,09,02,15,55,28.90
2006,09,02,15,56,28.90
2006,09,02,15,57,28.90
2006,09,02,15,58,28.90
2006,09,02,15,59,28.90
2006,09,02,16,00,28.80
2006,09,02,16,01,28.70
2006,09,02,16,02,28.70
2006,09,02,16,03,28.70
2006,09,02,16,04,28.70
2006,09,02,16,05,28.70
2006,09,02,16,06,28.70
2006,09,02,16,07,28.80
2006,09,02,16,08,28.80
2006,09,02,16,09,28.80
2006,09,02,16,10,28.80
2006,09,02,16,11,28.90
2006,09,02,16,12,28.90
2006,09,02,16,13,28.90
2006,09,02,16,14,28.90
2006,09,02,16,15,28.90
2006,09,02,16,16,28.80
2006,09,02,16,17,28.60
2006,09,02,16,18,28.30
2006,09,02,16,19,28.00
2006,09,02,16,20,27.60
2006,09,02,16,21,27.30
2006,09,02,16,22,26.90
2006,09,02,16,23,26.50
2006,09,02,16,24,26.20
2006,09,02,16,25,25.80
2006,09,02,16,26,25.60
2006,09,02,16,27,25.40
2006,09,02,16,28,25.30
2006,09,02,16,29,25.10
2006,09,02,16,30,25.00
2006,09,02,16,31,24.90
2006,09,02,16,32,24.70
2006,09,02,16,33,24.60
2006,09,02,16,34,24.60
2006,09,02,16,35,24.50
2006,09,02,16,36,24.50
2006,09,02,16,37,24.40
2006,09,02,16,38,24.40
2006,09,02,16,39,24.50
2006,09,02,16,40,24.50
2006,09,02,16,41,24.60
2006,09,02,16,42,24.60
2006,09,02,16,43,24.70
2006,09,02,16,44,24.80
2006,09,02,16,45,24.80
2006,09,02,16,46,24.80
2006,09,02,16,47,24.70
2006,09,02,16,48,24.60
2006,09,02,16,49,24.60
2006,09,02,16,50,24.60
2006,09,02,16,51,24.50
2006,09,02,16,52,24.50
2006,09,02,16,53,24.50
2006,09,02,16,54,24.50
2006,09,02,16,55,24.40
2006,09,02,16,56,24.40
2006,09,02,16,57,24.40
2006,09,02,16,58,24.40
2006,09,02,16,59,24.50
2006,09,02,17,00,24.50
2006,09,02,17,01,24.50
2006,09,02,17,02,24.50
2006,09,02,17,03,24.60
2006,09,02,17,04,24.60
2006,09,02,17,05,24.60
2006,09,02,17,06,24.60
2006,09,02,17,07,24.60
2006,09,02,17,08,24.50
2006,09,02,17,09,24.50
2006,09,02,17,10,24.50
2006,09,02,17,11,24.50
2006,09,02,17,12,24.50
2006,09,02,17,13,24.50
2006,09,02,17,14,24.60
2006,09,02,17,15,24.60
2006,09,02,17,16,24.50
2006,09,02,17,17,24.50
2006,09,02,17,18,24.50
2006,09,02,17,19,24.50